Hourly Data Report for November 05, 2019

All times are specified in Local Standard Time (LST). Add 1 hour to adjust for Daylight Saving Time where and when it is observed.

HOPE A
BRITISH COLUMBIA
Current Station Operator: NAVCAN

49°22'06.000" N
121°29'53.000" W
39.00 m
1113542
71187
YHE

Download Data

Hourly Data (November 2019)
Hourly Data Report for November 5, 2019
TIME Temp Definition
°C
Dew Point Definition
°C
Rel Hum Definition
%
Wind Dir Definition
10's deg

Wind Spd Definition
km/h
Visibility Definition
km
Stn Press Definition
kPa
Hmdx Definition


Wind Chill Definition


Weather Definition


00:00 4.5 3.6 94   0 16.1 101.93     LegendNANA
01:00 4.7 3.8 94   0 16.1 101.92     LegendNANA
02:00 5.1 3.8 91 LegendMM 4 16.1 101.91     LegendNANA
03:00 5.3 4.1 92 12 9 16.1 101.90     LegendNANA
04:00 5.5 4.3 92 11 11 16.1 101.89     LegendNANA
05:00 5.6 4.3 91 10 9 16.1 101.90     LegendNANA
06:00 5.9 4.4 90 8 9 16.1 101.92     LegendNANA
07:00 5.9 4.4 90 11 15 16.1 101.91     LegendNANA
08:00 6.4 4.7 89 8 9 16.1 101.95     LegendNANA
09:00 7.0 5.0 87 11 13 16.1 101.94     LegendNANA
10:00 8.1 5.4 83 10 15 16.1 101.93     LegendNANA
11:00 9.4 5.3 76 9 9 16.1 101.91     LegendNANA
12:00 11.9 5.3 64 9 9 16.1 101.86     LegendNANA
13:00 10.8 4.7 66 14 11 16.1 101.77     LegendNANA
14:00 10.1 5.5 73 12 9 16.1 101.71     LegendNANA
15:00 9.8 5.3 73 LegendMM 4 16.1 101.68     LegendNANA
16:00 7.8 5.5 85 12 4 16.1 101.70     LegendNANA
17:00 5.3 4.4 94 LegendMM 4 16.1 101.76     LegendNANA
18:00 6.9 4.9 87 9 11 16.1 101.81     LegendNANA
19:00 7.2 5.0 86 6 9 16.1 101.86     LegendNANA
20:00 7.3 4.4 82 10 21 16.1 101.90     LegendNANA
21:00 5.9 4.2 89 10 17 16.1 101.95     LegendNANA
22:00 6.9 4.1 82 8 17 16.1 102.03     LegendNANA
23:00 5.6 3.9 89 8 17 16.1 102.08     LegendNANA

Notes on Data Quality.

Legend

  • E = Estimated
  • M = Missing
  • NA = Not Available
Date modified: